Regional Weather Roundup
Issued by NWS

Home | Current Version | Previous Version | Text Only | Print | Product List | Glossary Off
Versions: 1 2 3 4 5 6 7 8 9 10 11 12 13 14 15 16 17 18 19 20 21 22 23 24 25 26 27 28 29 30 31 32 33 34 35 36 37 38 39 40 41 42 43 44 45 46 47 48 49 50

824
ASUS43 KBIS 282310
RWRND
NORTH DAKOTA REGIONAL WEATHER ROUNDUP
NATIONAL WEATHER SERVICE EASTERN NORTH DAKOTA/GRAND FORKS ND
600 PM CDT SUN MAY 28 2017

  NOTE: "FAIR" INDICATES FEW OR NO CLOUDS BELOW 12,000 FEET WITH NO
  SIGNIFICANT WEATHER AND/OR OBSTRUCTIONS TO VISIBILITY.

NDZ001>003-009>011-017-290000-
...NORTHWEST NORTH DAKOTA...

CITY           SKY/WX    TMP DP  RH WIND       PRES   REMARKS
WILLISTON      PTSUNNY   69  32  25 N28G38    29.98F
MINOT          PTSUNNY   65  40  39 NW29G38   29.88S
MINOT AFB      LGT RAIN  61  43  51 N33G41    29.88R SQUALL
$$

NDZ018>021-031>035-040>046-290000-
...SOUTHWEST NORTH DAKOTA...

CITY           SKY/WX    TMP DP  RH WIND       PRES   REMARKS
BISMARCK       FAIR      72  36  26 NW30G40   29.87R
DICKINSON      FAIR      69  28  21 NW25G36   29.95R
GARRISON         N/A     68  34  28 NW30G43   29.88F
HETTINGER      FAIR      72  32  23 NW32G41   29.96S
$$

NDZ004>008-012>016-024-026-027-054-290000-
...NORTHEAST NORTH DAKOTA...

CITY           SKY/WX    TMP DP  RH WIND       PRES   REMARKS
GRAND FORKS    CLOUDY    56  51  84 N15G24    29.75R
GRAND FORKS AF CLOUDY    56  47  71 N23G29    29.76R
DEVILS LAKE    CLOUDY    57  45  64 NW21G30   29.82R
$$

NDZ022-023-025-028>030-036>039-047>053-290000-
...SOUTHEAST NORTH DAKOTA...

CITY           SKY/WX    TMP DP  RH WIND       PRES   REMARKS
JAMESTOWN      FAIR      58  46  64 N30G44    29.83R
FARGO          FAIR      64  48  56 NW16      29.74S
WAHPETON       FAIR      63  37  39 W20       29.77F
$$




USA.gov is the U.S. government's official web portal to all federal, state and local government web resources and services.